Weather History for Asheboro, NC

Change the Weather History Date:

Tuesday, April 15, 2014

  Actual Average Record
Temperature  
Mean Temperature 54 °F -  
Max Temperature 69 °F 73 °F 90 °F (1972)
Min Temperature 37 °F 50 °F 28 °F (1950)
Degree Days  
Heating Degree Days 12    
Growing Degree Days 4 (Base 50)    
Moisture  
Dew Point 54 °F    
Average Humidity 88    
Maximum Humidity 100    
Minimum Humidity 64    
Precipitation  
Precipitation 1.40 in - - ()
Sea Level Pressure  
Sea Level Pressure 29.79 in    
Wind  
Wind Speed 11 mph (SW)    
Max Wind Speed 15 mph    
Max Gust Speed 31 mph    
Visibility 9 miles    
Events Rain    
Averages and records for this station are not official NWS values.
T = Trace of Precipitation, MM = Missing Value Source: NWS Daily Summary

Daily Weather History Graph

Daily Weather History Graph

Search for Another Location

Airport:

Trip Planner

Search our weather history database for the weather conditions in past years. The results will help you decide how hot, cold, wet, or windy it might be!

Date:

Astronomy

Apr. 15, 2014 Rise Set
Actual Time 6:46 AM EDT 7:52 PM EDT
Civil Twilight 6:20 AM EDT 8:19 PM EDT
Nautical Twilight 5:49 AM EDT 8:50 PM EDT
Astronomical Twilight 5:17 AM EDT 9:22 PM EDT
Moon 8:30 PM EDT (4/15) 6:54 AM EDT (4/15)
Length of Visible Light 13h 58m
Length of Day
13h 05m
Full, 100% of the Moon is Illuminated
Apr 15
Full
Apr 22
Last Quarter
Apr 29
New
May 6
First Quarter
May 14
Full

Hourly Weather History & Observations

Time (EDT) Temp. Windchill Dew Point Humidity Pressure Visibility Wind Dir Wind Speed Gust Speed Precip Events Conditions
12:15 AM 67.1 °F - 63.5 °F 88% 29.84 in 10.0 mi SSE 11.5 mph 18.4 mph N/A   Overcast
12:35 AM 67.1 °F - 63.5 °F 88% 29.84 in 10.0 mi South 12.7 mph 19.6 mph N/A   Overcast
1:15 AM 67.1 °F - 64.0 °F 90% 29.83 in 10.0 mi South 15.0 mph 23.0 mph N/A Rain Rain
1:35 AM 67.1 °F - 64.2 °F 90% 29.82 in 10.0 mi South 11.5 mph 18.4 mph N/A   Light Drizzle
1:55 AM 67.5 °F - 64.2 °F 89% 29.81 in 10.0 mi South 12.7 mph 18.4 mph N/A Rain Light Rain
2:10 AM 67.6 °F - 64.0 °F 88% 29.80 in 10.0 mi South 12.7 mph 19.6 mph N/A   Overcast
2:35 AM 67.8 °F - 64.2 °F 88% 29.79 in 10.0 mi South 15.0 mph 23.0 mph N/A   Overcast
2:55 AM 67.8 °F - 64.4 °F 89% 29.79 in 10.0 mi South 11.5 mph 20.7 mph N/A   Overcast
3:15 AM 67.5 °F - 64.8 °F 91% 29.78 in 10.0 mi South 13.8 mph 19.6 mph N/A Rain Rain
3:35 AM 66.7 °F - 65.3 °F 95% 29.76 in 10.0 mi SSE 11.5 mph 16.1 mph 0.02 in Rain Light Rain
3:55 AM 66.6 °F - 65.5 °F 96% 29.75 in 5.0 mi South 9.2 mph - 0.09 in Rain Heavy Rain
4:15 AM 66.7 °F - 65.7 °F 96% 29.75 in 5.0 mi South 10.4 mph 19.6 mph 0.08 in Rain Rain
4:35 AM 66.6 °F - 65.8 °F 98% 29.76 in 4.0 mi South 10.4 mph - 0.22 in Rain Heavy Rain
4:55 AM 65.3 °F - 65.3 °F 100% 29.74 in 2.0 mi SSW 10.4 mph 18.4 mph 0.73 in Rain Heavy Rain
5:15 AM 65.3 °F - 65.3 °F 100% 29.74 in 7.0 mi WSW 8.1 mph - 0.10 in Rain Heavy Rain
5:35 AM 63.7 °F - 63.7 °F 100% 29.75 in 5.0 mi SW 8.1 mph 17.3 mph 0.19 in Rain Rain
5:55 AM 63.1 °F - 63.1 °F 100% 29.75 in 10.0 mi SSW 6.9 mph - 0.24 in Rain Rain
6:15 AM 63.0 °F - 63.0 °F 100% 29.74 in 10.0 mi SSW 6.9 mph - 0.02 in Rain Light Rain
6:35 AM 63.0 °F - 63.0 °F 100% 29.74 in 10.0 mi SW 6.9 mph - 0.02 in   Overcast
6:55 AM 63.1 °F - 63.1 °F 100% 29.74 in 10.0 mi SSW 9.2 mph - 0.02 in   Overcast
7:15 AM 63.0 °F - 63.0 °F 100% 29.73 in 10.0 mi South 5.8 mph - N/A   Mostly Cloudy
7:35 AM 63.0 °F - 63.0 °F 100% 29.73 in 10.0 mi South 8.1 mph - N/A   Mostly Cloudy
7:55 AM 63.0 °F - 63.0 °F 100% 29.74 in 10.0 mi South 9.2 mph - N/A   Scattered Clouds
8:15 AM 63.0 °F - 63.0 °F 100% 29.73 in 10.0 mi South 8.1 mph - N/A   Scattered Clouds
8:35 AM 63.9 °F - 63.5 °F 99% 29.72 in 10.0 mi South 6.9 mph - N/A   Scattered Clouds
8:55 AM 64.4 °F - 62.8 °F 94% 29.71 in 10.0 mi South 9.2 mph - N/A   Scattered Clouds
9:15 AM 64.8 °F - 62.1 °F 91% 29.72 in 10.0 mi South 8.1 mph - N/A   Scattered Clouds
9:35 AM 64.8 °F - 61.7 °F 90% 29.73 in 10.0 mi SSW 9.2 mph - N/A   Clear
9:55 AM 64.8 °F - 61.9 °F 90% 29.74 in 10.0 mi SSW 12.7 mph 18.4 mph N/A   Mostly Cloudy
10:15 AM 64.9 °F - 61.9 °F 90% 29.74 in 10.0 mi SSW 13.8 mph 19.6 mph N/A   Mostly Cloudy
10:35 AM 65.7 °F - 61.9 °F 88% 29.74 in 10.0 mi South 11.5 mph 19.6 mph N/A   Mostly Cloudy
10:55 AM 65.7 °F - 61.2 °F 85% 29.75 in 10.0 mi South 13.8 mph 18.4 mph N/A   Overcast
11:15 AM 65.3 °F - 61.2 °F 86% 29.74 in 10.0 mi South 11.5 mph 17.3 mph N/A Rain Light Rain
11:35 AM 65.8 °F - 61.0 °F 84% 29.73 in 10.0 mi South 10.4 mph 16.1 mph N/A   Mostly Cloudy
11:55 AM 65.3 °F - 61.9 °F 89% 29.72 in 10.0 mi South 10.4 mph - N/A Rain Light Rain
12:35 PM 66.2 °F - 62.1 °F 86% 29.71 in 10.0 mi SSW 11.5 mph - N/A   Overcast
12:55 PM 66.6 °F - 62.2 °F 86% 29.71 in 10.0 mi South 11.5 mph - N/A   Overcast
1:35 PM 67.6 °F - 61.9 °F 82% 29.69 in 10.0 mi South 10.4 mph 18.4 mph N/A   Overcast
2:15 PM 66.2 °F - 63.7 °F 92% 29.67 in 10.0 mi South 8.1 mph 16.1 mph 0.01 in Rain Light Rain
2:35 PM 66.6 °F - 64.4 °F 93% 29.66 in 10.0 mi South 9.2 mph - 0.01 in   Overcast
2:55 PM 67.1 °F - 64.6 °F 92% 29.65 in 10.0 mi South 6.9 mph - 0.01 in   Overcast
3:15 PM 68.2 °F - 64.6 °F 88% 29.64 in 10.0 mi SSW 12.7 mph 17.3 mph N/A   Mostly Cloudy
3:35 PM 69.1 °F - 63.9 °F 83% 29.62 in 10.0 mi South 13.8 mph 19.6 mph N/A   Scattered Clouds
3:55 PM 56.8 °F - 50.2 °F 78% 29.69 in 10.0 mi NNW 15.0 mph 31.1 mph N/A   Overcast
4:15 PM 50.0 °F - 46.6 °F 88% 29.71 in 7.0 mi North 11.5 mph 25.3 mph 0.03 in Rain Heavy Rain
4:35 PM 48.0 °F - 47.1 °F 97% 29.75 in 4.0 mi NW 12.7 mph 18.4 mph 0.14 in Rain Rain
4:55 PM 46.8 °F - 45.7 °F 96% 29.76 in 5.0 mi NW 10.4 mph 19.6 mph 0.19 in Rain Rain
5:15 PM 46.4 °F 41.5 °F 45.0 °F 95% 29.74 in 5.0 mi NNW 10.4 mph 19.6 mph 0.06 in Rain Heavy Rain
5:35 PM 46.2 °F 42.7 °F 45.3 °F 97% 29.76 in 10.0 mi NW 6.9 mph 10.4 mph 0.08 in Rain Rain
5:55 PM 46.4 °F 42.4 °F 45.7 °F 97% 29.78 in 10.0 mi NW 8.1 mph - 0.09 in Rain Rain
6:15 PM 45.9 °F 41.2 °F 45.5 °F 99% 29.78 in 5.0 mi North 9.2 mph - 0.02 in Rain Rain
6:35 PM 45.7 °F 41.0 °F 44.6 °F 96% 29.80 in 5.0 mi NNW 9.2 mph - 0.02 in   Drizzle
6:55 PM 45.5 °F 40.3 °F 43.7 °F 93% 29.81 in 10.0 mi NNW 10.4 mph 18.4 mph 0.02 in   Overcast
7:15 PM 45.3 °F 40.6 °F 42.3 °F 89% 29.82 in 10.0 mi NNW 9.2 mph 17.3 mph N/A   Overcast
7:35 PM 44.8 °F 39.9 °F 41.4 °F 88% 29.84 in 10.0 mi NNW 9.2 mph - N/A   Overcast
7:55 PM 44.6 °F 40.7 °F 42.3 °F 91% 29.86 in 10.0 mi NNW 6.9 mph - N/A   Overcast
8:15 PM 43.9 °F 38.8 °F 39.6 °F 85% 29.89 in 10.0 mi NW 9.2 mph - N/A   Mostly Cloudy
8:35 PM 43.2 °F 39.7 °F 37.8 °F 81% 29.91 in 10.0 mi NNW 5.8 mph 19.6 mph 0.01 in   Mostly Cloudy
8:55 PM 42.8 °F 37.5 °F 35.1 °F 74% 29.93 in 10.0 mi NNW 9.2 mph - 0.01 in   Mostly Cloudy
9:15 PM 42.4 °F 37.5 °F 32.7 °F 68% 29.95 in 10.0 mi NW 8.1 mph 17.3 mph N/A   Scattered Clouds
9:35 PM 41.9 °F 34.3 °F 31.6 °F 67% 29.97 in 10.0 mi NNW 15.0 mph 23.0 mph N/A   Clear
9:55 PM 41.2 °F 36.6 °F 30.9 °F 67% 30.00 in 10.0 mi NNW 6.9 mph - N/A   Clear
10:15 PM 40.5 °F 34.1 °F 30.6 °F 68% 30.01 in 10.0 mi NW 10.4 mph 16.1 mph N/A   Clear
10:35 PM 40.1 °F 34.1 °F 29.8 °F 67% 30.03 in 10.0 mi NNW 9.2 mph - N/A   Clear
10:55 PM 39.6 °F 34.0 °F 28.9 °F 66% 30.04 in 10.0 mi NNW 8.1 mph - N/A   Clear
11:15 PM 39.2 °F 33.6 °F 28.4 °F 65% 30.05 in 10.0 mi NNW 8.1 mph - N/A   Clear
11:35 PM 38.7 °F 32.9 °F 27.5 °F 64% 30.05 in 10.0 mi NNW 8.1 mph - N/A   Clear
11:55 PM 37.9 °F 32.1 °F 27.3 °F 66% 30.06 in 10.0 mi North 8.1 mph - N/A   Scattered Clouds